Wetterdaten: aktuell Donnerstag, 20.02.2020 05:38
Datum Zeit Temp. A. Feuchte A. Luftdruck Regen Wind Richtung Richtung Sonnenschein ET UV Solar Taupunkt Windchill Windben Empfang
20.02.2020 05:38 -1,3 C 94 % 1027,7 hPa 0,0 l/m 8,0 km/h (2 Bft) W 270 0 min 0,000 mm 0,0 UV-I 0 W/m -2,1 C -4,3 C 11,3 km/h (2 Bft) 100,00 %
20.02.2020 05:37 -1,3 C 94 % 1027,6 hPa 0,0 l/m 8,0 km/h (2 Bft) W 270 0 min 0,000 mm 0,0 UV-I 0 W/m -2,1 C -4,3 C 12,9 km/h (3 Bft) 100,00 %
20.02.2020 05:36 -1,3 C 94 % 1027,7 hPa 0,0 l/m 4,8 km/h (1 Bft) W 270 0 min 0,000 mm 0,0 UV-I 0 W/m -2,1 C -3,0 C 12,9 km/h (3 Bft) 100,00 %
20.02.2020 05:35 -1,3 C 94 % 1027,6 hPa 0,0 l/m 6,4 km/h (2 Bft) W 270 0 min 0,000 mm 0,0 UV-I 0 W/m -2,1 C -3,7 C 16,1 km/h (3 Bft) 100,00 %
20.02.2020 05:34 -1,2 C 94 % 1027,6 hPa 0,0 l/m 12,9 km/h (3 Bft) W 270 0 min 0,000 mm 0,0 UV-I 0 W/m -2,0 C -5,5 C 16,1 km/h (3 Bft) 100,00 %
20.02.2020 05:33 -1,2 C 94 % 1027,5 hPa 0,0 l/m 8,0 km/h (2 Bft) W 270 0 min 0,000 mm 0,0 UV-I 0 W/m -2,0 C -4,1 C 12,9 km/h (3 Bft) 100,00 %
20.02.2020 05:32 -1,2 C 94 % 1027,5 hPa 0,0 l/m 6,4 km/h (2 Bft) W 270 0 min 0,000 mm 0,0 UV-I 0 W/m -2,0 C -3,6 C 11,3 km/h (2 Bft) 95,65 %
20.02.2020 05:31 -1,2 C 94 % 1027,6 hPa 0,0 l/m 6,4 km/h (2 Bft) W-SW 247 0 min 0,000 mm 0,0 UV-I 0 W/m -2,0 C -3,6 C 9,7 km/h (2 Bft) 100,00 %
20.02.2020 05:30 -1,2 C 94 % 1027,5 hPa 0,0 l/m 3,2 km/h (1 Bft) W 270 0 min 0,000 mm 0,0 UV-I 0 W/m -2,0 C -1,2 C 11,3 km/h (2 Bft) 100,00 %
20.02.2020 05:29 -1,2 C 94 % 1027,6 hPa 0,0 l/m 3,2 km/h (1 Bft) W 270 0 min 0,000 mm 0,0 UV-I 0 W/m -2,0 C -1,2 C 6,4 km/h (2 Bft) 100,00 %
20.02.2020 05:28 -1,2 C 94 % 1027,6 hPa 0,0 l/m 4,8 km/h (1 Bft) SW 225 0 min 0,000 mm 0,0 UV-I 0 W/m -2,0 C -2,9 C 9,7 km/h (2 Bft) 95,65 %
20.02.2020 05:27 -1,2 C 94 % 1027,7 hPa 0,0 l/m 4,8 km/h (1 Bft) W-NW 292 0 min 0,000 mm 0,0 UV-I 0 W/m -2,0 C -2,9 C 11,3 km/h (2 Bft) 100,00 %
20.02.2020 05:26 -1,2 C 94 % 1027,5 hPa 0,0 l/m 6,4 km/h (2 Bft) W 270 0 min 0,000 mm 0,0 UV-I 0 W/m -2,0 C -3,6 C 11,3 km/h (2 Bft) 100,00 %
20.02.2020 05:25 -1,2 C 94 % 1027,6 hPa 0,0 l/m 6,4 km/h (2 Bft) W 270 0 min 0,000 mm 0,0 UV-I 0 W/m -2,0 C -3,6 C 12,9 km/h (3 Bft) 95,65 %
20.02.2020 05:24 -1,2 C 94 % 1027,6 hPa 0,0 l/m 6,4 km/h (2 Bft) W 270 0 min 0,000 mm 0,0 UV-I 0 W/m -2,0 C -3,6 C 11,3 km/h (2 Bft) 100,00 %
20.02.2020 05:23 -1,2 C 94 % 1027,7 hPa 0,0 l/m 6,4 km/h (2 Bft) W 270 0 min 0,000 mm 0,0 UV-I 0 W/m -2,0 C -3,6 C 11,3 km/h (2 Bft) 100,00 %
20.02.2020 05:22 -1,1 C 94 % 1027,7 hPa 0,0 l/m 8,0 km/h (2 Bft) W 270 0 min 0,000 mm 0,0 UV-I 0 W/m -1,9 C -4,0 C 12,9 km/h (3 Bft) 100,00 %
20.02.2020 05:21 -1,2 C 94 % 1027,7 hPa 0,0 l/m 12,9 km/h (3 Bft) W 270 0 min 0,000 mm 0,0 UV-I 0 W/m -2,0 C -5,5 C 20,9 km/h (4 Bft) 95,65 %
20.02.2020 05:20 -1,1 C 94 % 1027,7 hPa 0,0 l/m 11,3 km/h (2 Bft) W 270 0 min 0,000 mm 0,0 UV-I 0 W/m -1,9 C -5,0 C 16,1 km/h (3 Bft) 100,00 %
20.02.2020 05:19 -1,1 C 94 % 1027,6 hPa 0,0 l/m 14,5 km/h (3 Bft) W 270 0 min 0,000 mm 0,0 UV-I 0 W/m -1,9 C -5,7 C 17,7 km/h (3 Bft) 100,00 %
20.02.2020 05:18 -1,1 C 94 % 1027,6 hPa 0,0 l/m 12,9 km/h (3 Bft) W-SW 247 0 min 0,000 mm 0,0 UV-I 0 W/m -1,9 C -5,3 C 17,7 km/h (3 Bft) 95,65 %
20.02.2020 05:17 -1,1 C 94 % 1027,6 hPa 0,0 l/m 12,9 km/h (3 Bft) W 270 0 min 0,000 mm 0,0 UV-I 0 W/m -1,9 C -5,3 C 17,7 km/h (3 Bft) 100,00 %
20.02.2020 05:16 -1,2 C 94 % 1027,6 hPa 0,0 l/m 16,1 km/h (3 Bft) W-SW 247 0 min 0,000 mm 0,0 UV-I 0 W/m -2,0 C -6,1 C 20,9 km/h (4 Bft) 95,65 %
20.02.2020 05:15 -1,2 C 94 % 1027,7 hPa 0,0 l/m 9,7 km/h (2 Bft) W 270 0 min 0,000 mm 0,0 UV-I 0 W/m -2,0 C -4,7 C 17,7 km/h (3 Bft) 100,00 %
20.02.2020 05:14 -1,1 C 94 % 1027,7 hPa 0,0 l/m 12,9 km/h (3 Bft) W 270 0 min 0,000 mm 0,0 UV-I 0 W/m -1,9 C -5,3 C 17,7 km/h (3 Bft) 100,00 %
20.02.2020 05:13 -1,1 C 94 % 1027,6 hPa 0,0 l/m 12,9 km/h (3 Bft) W-SW 247 0 min 0,000 mm 0,0 UV-I 0 W/m -1,9 C -5,3 C 17,7 km/h (3 Bft) 100,00 %
20.02.2020 05:12 -1,1 C 94 % 1027,6 hPa 0,0 l/m 14,5 km/h (3 Bft) W 270 0 min 0,000 mm 0,0 UV-I 0 W/m -1,9 C -5,7 C 19,3 km/h (3 Bft) 100,00 %
20.02.2020 05:11 -1,1 C 94 % 1027,6 hPa 0,0 l/m 9,7 km/h (2 Bft) W 270 0 min 0,000 mm 0,0 UV-I 0 W/m -1,9 C -4,5 C 12,9 km/h (3 Bft) 95,65 %
20.02.2020 05:10 -1,2 C 94 % 1027,7 hPa 0,0 l/m 6,4 km/h (2 Bft) W 270 0 min 0,000 mm 0,0 UV-I 0 W/m -2,0 C -3,6 C 11,3 km/h (2 Bft) 95,65 %
20.02.2020 05:09 -1,2 C 94 % 1027,7 hPa 0,0 l/m 11,3 km/h (2 Bft) W-SW 247 0 min 0,000 mm 0,0 UV-I 0 W/m -2,0 C -5,1 C 14,5 km/h (3 Bft) 100,00 %
20.02.2020 05:08 -1,3 C 94 % 1027,7 hPa 0,0 l/m 11,3 km/h (2 Bft) W-SW 247 0 min 0,000 mm 0,0 UV-I 0 W/m -2,1 C -5,2 C 17,7 km/h (3 Bft) 95,65 %
20.02.2020 05:07 -1,3 C 94 % 1027,8 hPa 0,0 l/m 9,7 km/h (2 Bft) W-SW 247 0 min 0,000 mm 0,0 UV-I 0 W/m -2,1 C -4,8 C 14,5 km/h (3 Bft) 100,00 %
20.02.2020 05:06 -1,3 C 94 % 1027,7 hPa 0,0 l/m 11,3 km/h (2 Bft) W 270 0 min 0,000 mm 0,0 UV-I 0 W/m -2,1 C -5,2 C 12,9 km/h (3 Bft) 100,00 %
20.02.2020 05:05 -1,3 C 94 % 1027,7 hPa 0,0 l/m 8,0 km/h (2 Bft) W 270 0 min 0,000 mm 0,0 UV-I 0 W/m -2,1 C -4,3 C 11,3 km/h (2 Bft) 100,00 %
20.02.2020 05:04 -1,3 C 94 % 1027,7 hPa 0,0 l/m 8,0 km/h (2 Bft) W 270 0 min 0,000 mm 0,0 UV-I 0 W/m -2,1 C -4,3 C 11,3 km/h (2 Bft) 91,30 %
20.02.2020 05:03 -1,3 C 94 % 1027,7 hPa 0,0 l/m 8,0 km/h (2 Bft) W 270 0 min 0,000 mm 0,0 UV-I 0 W/m -2,1 C -4,3 C 9,7 km/h (2 Bft) 100,00 %
20.02.2020 05:02 -1,3 C 94 % 1027,7 hPa 0,0 l/m 3,2 km/h (1 Bft) W-SW 247 0 min 0,000 mm 0,0 UV-I 0 W/m -2,1 C -1,3 C 6,4 km/h (2 Bft) 100,00 %
20.02.2020 05:01 -1,3 C 94 % 1027,7 hPa 0,0 l/m 4,8 km/h (1 Bft) W 270 0 min 0,000 mm 0,0 UV-I 0 W/m -2,1 C -3,0 C 9,7 km/h (2 Bft) 95,65 %
20.02.2020 05:00 -1,3 C 94 % 1027,7 hPa 0,0 l/m 6,4 km/h (2 Bft) W 270 0 min 0,000 mm 0,0 UV-I 0 W/m -2,1 C -3,7 C 14,5 km/h (3 Bft) 100,00 %
20.02.2020 04:59 -1,3 C 94 % 1027,7 hPa 0,0 l/m 3,2 km/h (1 Bft) W 270 0 min 0,000 mm 0,0 UV-I 0 W/m -2,1 C -1,3 C 6,4 km/h (2 Bft) 95,65 %
20.02.2020 04:58 -1,3 C 94 % 1027,7 hPa 0,0 l/m 4,8 km/h (1 Bft) W 270 0 min 0,000 mm 0,0 UV-I 0 W/m -2,1 C -3,0 C 9,7 km/h (2 Bft) 95,65 %
20.02.2020 04:57 -1,3 C 94 % 1027,7 hPa 0,0 l/m 4,8 km/h (1 Bft) W-SW 247 0 min 0,000 mm 0,0 UV-I 0 W/m -2,1 C -3,0 C 8,0 km/h (2 Bft) 91,30 %
20.02.2020 04:56 -1,2 C 94 % 1027,7 hPa 0,0 l/m 3,2 km/h (1 Bft) W 270 0 min 0,000 mm 0,0 UV-I 0 W/m -2,0 C -1,2 C 9,7 km/h (2 Bft) 100,00 %
20.02.2020 04:55 -1,2 C 94 % 1027,7 hPa 0,0 l/m 3,2 km/h (1 Bft) W 270 0 min 0,000 mm 0,0 UV-I 0 W/m -2,0 C -1,2 C 4,8 km/h (1 Bft) 95,65 %
20.02.2020 04:54 -1,2 C 94 % 1027,7 hPa 0,0 l/m 3,2 km/h (1 Bft) W-SW 247 0 min 0,000 mm 0,0 UV-I 0 W/m -2,0 C -1,2 C 4,8 km/h (1 Bft) 100,00 %
20.02.2020 04:53 -1,2 C 94 % 1027,7 hPa 0,0 l/m 3,2 km/h (1 Bft) W 270 0 min 0,000 mm 0,0 UV-I 0 W/m -2,0 C -1,2 C 6,4 km/h (2 Bft) 100,00 %
20.02.2020 04:52 -1,2 C 94 % 1027,7 hPa 0,0 l/m 3,2 km/h (1 Bft) W-SW 247 0 min 0,000 mm 0,0 UV-I 0 W/m -2,0 C -1,2 C 4,8 km/h (1 Bft) 100,00 %
20.02.2020 04:51 -1,2 C 94 % 1027,7 hPa 0,0 l/m 6,4 km/h (2 Bft) W-SW 247 0 min 0,000 mm 0,0 UV-I 0 W/m -2,0 C -3,6 C 9,7 km/h (2 Bft) 100,00 %
20.02.2020 04:50 -1,2 C 94 % 1027,7 hPa 0,0 l/m 4,8 km/h (1 Bft) W 270 0 min 0,000 mm 0,0 UV-I 0 W/m -2,0 C -2,9 C 9,7 km/h (2 Bft) 91,30 %
20.02.2020 04:49 -1,2 C 94 % 1027,7 hPa 0,0 l/m 3,2 km/h (1 Bft) W 270 0 min 0,000 mm 0,0 UV-I 0 W/m -2,0 C -1,2 C 4,8 km/h (1 Bft) 100,00 %
20.02.2020 04:48 -1,1 C 94 % 1027,7 hPa 0,0 l/m 3,2 km/h (1 Bft) W 270 0 min 0,000 mm 0,0 UV-I 0 W/m -1,9 C -1,1 C 4,8 km/h (1 Bft) 100,00 %
20.02.2020 04:47 -1,1 C 94 % 1027,7 hPa 0,0 l/m 3,2 km/h (1 Bft) W 270 0 min 0,000 mm 0,0 UV-I 0 W/m -1,9 C -1,1 C 6,4 km/h (2 Bft) 100,00 %
20.02.2020 04:46 -1,1 C 94 % 1027,7 hPa 0,0 l/m 1,6 km/h (1 Bft) W 270 0 min 0,000 mm 0,0 UV-I 0 W/m -1,9 C -1,1 C 4,8 km/h (1 Bft) 100,00 %
20.02.2020 04:45 -1,1 C 94 % 1027,7 hPa 0,0 l/m 1,6 km/h (1 Bft) W 270 0 min 0,000 mm 0,0 UV-I 0 W/m -1,9 C -1,1 C 3,2 km/h (1 Bft) 100,00 %
20.02.2020 04:44 -1,0 C 94 % 1027,7 hPa 0,0 l/m 4,8 km/h (1 Bft) W-SW 247 0 min 0,000 mm 0,0 UV-I 0 W/m -1,8 C -2,6 C 6,4 km/h (2 Bft) 95,65 %
20.02.2020 04:43 -1,1 C 94 % 1027,7 hPa 0,0 l/m 3,2 km/h (1 Bft) W-SW 247 0 min 0,000 mm 0,0 UV-I 0 W/m -1,9 C -1,1 C 6,4 km/h (2 Bft) 95,65 %
20.02.2020 04:42 -0,9 C 94 % 1027,7 hPa 0,0 l/m 4,8 km/h (1 Bft) W-SW 247 0 min 0,000 mm 0,0 UV-I 0 W/m -1,7 C -2,5 C 4,8 km/h (1 Bft) 100,00 %
20.02.2020 04:41 -0,9 C 94 % 1027,7 hPa 0,0 l/m 1,6 km/h (1 Bft) SW 225 0 min 0,000 mm 0,0 UV-I 0 W/m -1,7 C -0,9 C 4,8 km/h (1 Bft) 100,00 %
20.02.2020 04:40 -0,9 C 94 % 1027,7 hPa 0,0 l/m 1,6 km/h (1 Bft) SW 225 0 min 0,000 mm 0,0 UV-I 0 W/m -1,7 C -0,9 C 4,8 km/h (1 Bft) 95,65 %
20.02.2020 04:39 -0,9 C 94 % 1027,7 hPa 0,0 l/m 1,6 km/h (1 Bft) SW 225 0 min 0,000 mm 0,0 UV-I 0 W/m -1,7 C -0,9 C 4,8 km/h (1 Bft) 95,65 %
20.02.2020 04:38 -0,9 C 94 % 1027,8 hPa 0,0 l/m 1,6 km/h (1 Bft) SW 225 0 min 0,000 mm 0,0 UV-I 0 W/m -1,7 C -0,9 C 1,6 km/h (1 Bft) 95,65 %
20.02.2020 04:37 -0,9 C 94 % 1027,8 hPa 0,0 l/m 1,6 km/h (1 Bft) SW 225 0 min 0,000 mm 0,0 UV-I 0 W/m -1,7 C -0,9 C 4,8 km/h (1 Bft) 100,00 %
20.02.2020 04:36 -0,9 C 94 % 1027,7 hPa 0,0 l/m 1,6 km/h (1 Bft) S-SW 202 0 min 0,000 mm 0,0 UV-I 0 W/m -1,7 C -0,9 C 4,8 km/h (1 Bft) 91,30 %
20.02.2020 04:35 -0,9 C 94 % 1027,7 hPa 0,0 l/m 1,6 km/h (1 Bft) SW 225 0 min 0,000 mm 0,0 UV-I 0 W/m -1,7 C -0,9 C 3,2 km/h (1 Bft) 100,00 %
20.02.2020 04:34 -0,8 C 94 % 1027,8 hPa 0,0 l/m 1,6 km/h (1 Bft) W-SW 247 0 min 0,000 mm 0,0 UV-I 0 W/m -1,6 C -0,8 C 4,8 km/h (1 Bft) 95,65 %
20.02.2020 04:33 -0,9 C 94 % 1027,7 hPa 0,0 l/m 3,2 km/h (1 Bft) SW 225 0 min 0,000 mm 0,0 UV-I 0 W/m -1,7 C -0,9 C 6,4 km/h (2 Bft) 100,00 %
20.02.2020 04:32 -0,9 C 94 % 1027,7 hPa 0,0 l/m 3,2 km/h (1 Bft) S-SW 202 0 min 0,000 mm 0,0 UV-I 0 W/m -1,7 C -0,9 C 4,8 km/h (1 Bft) 95,65 %
20.02.2020 04:31 -0,9 C 94 % 1027,7 hPa 0,0 l/m 1,6 km/h (1 Bft) SW 225 0 min 0,000 mm 0,0 UV-I 0 W/m -1,7 C -0,9 C 3,2 km/h (1 Bft) 100,00 %
20.02.2020 04:30 -0,9 C 94 % 1027,8 hPa 0,0 l/m 1,6 km/h (1 Bft) SW 225 0 min 0,000 mm 0,0 UV-I 0 W/m -1,7 C -0,9 C 3,2 km/h (1 Bft) 95,65 %
20.02.2020 04:29 -0,9 C 94 % 1027,7 hPa 0,0 l/m 3,2 km/h (1 Bft) SW 225 0 min 0,000 mm 0,0 UV-I 0 W/m -1,7 C -0,9 C 4,8 km/h (1 Bft) 91,30 %
20.02.2020 04:28 -0,9 C 94 % 1027,6 hPa 0,0 l/m 4,8 km/h (1 Bft) SW 225 0 min 0,000 mm 0,0 UV-I 0 W/m -1,7 C -2,5 C 9,7 km/h (2 Bft) 100,00 %
20.02.2020 04:27 -0,9 C 94 % 1027,7 hPa 0,0 l/m 3,2 km/h (1 Bft) W-NW 292 0 min 0,000 mm 0,0 UV-I 0 W/m -1,7 C -0,9 C 9,7 km/h (2 Bft) 95,65 %
20.02.2020 04:26 -0,9 C 94 % 1027,6 hPa 0,0 l/m 1,6 km/h (1 Bft) W-NW 292 0 min 0,000 mm 0,0 UV-I 0 W/m -1,7 C -0,9 C 3,2 km/h (1 Bft) 100,00 %
20.02.2020 04:25 -0,9 C 93 % 1027,6 hPa 0,0 l/m 3,2 km/h (1 Bft) W-NW 292 0 min 0,000 mm 0,0 UV-I 0 W/m -1,9 C -0,9 C 9,7 km/h (2 Bft) 95,65 %
20.02.2020 04:24 -0,9 C 93 % 1027,7 hPa 0,0 l/m 1,6 km/h (1 Bft) SW 225 0 min 0,000 mm 0,0 UV-I 0 W/m -1,9 C -0,9 C 3,2 km/h (1 Bft) 95,65 %
20.02.2020 04:23 -0,9 C 93 % 1027,7 hPa 0,0 l/m 1,6 km/h (1 Bft) W 270 0 min 0,000 mm 0,0 UV-I 0 W/m -1,9 C -0,9 C 4,8 km/h (1 Bft) 95,65 %
20.02.2020 04:22 -1,0 C 93 % 1027,7 hPa 0,0 l/m 1,6 km/h (1 Bft) W 270 0 min 0,000 mm 0,0 UV-I 0 W/m -2,0 C -1,0 C 4,8 km/h (1 Bft) 95,65 %
20.02.2020 04:21 -1,0 C 93 % 1027,7 hPa 0,0 l/m 1,6 km/h (1 Bft) W 270 0 min 0,000 mm 0,0 UV-I 0 W/m -2,0 C -1,0 C 1,6 km/h (1 Bft) 95,65 %
20.02.2020 04:20 -1,0 C 93 % 1027,6 hPa 0,0 l/m 1,6 km/h (1 Bft) W 270 0 min 0,000 mm 0,0 UV-I 0 W/m -2,0 C -1,0 C 3,2 km/h (1 Bft) 95,65 %
20.02.2020 04:19 -0,9 C 93 % 1027,7 hPa 0,0 l/m 1,6 km/h (1 Bft) W-SW 247 0 min 0,000 mm 0,0 UV-I 0 W/m -1,9 C -0,9 C 4,8 km/h (1 Bft) 95,65 %
20.02.2020 04:18 -0,9 C 92 % 1027,6 hPa 0,0 l/m 1,6 km/h (1 Bft) W-SW 247 0 min 0,000 mm 0,0 UV-I 0 W/m -2,0 C -0,9 C 3,2 km/h (1 Bft) 95,65 %
20.02.2020 04:17 -0,9 C 93 % 1027,6 hPa 0,0 l/m 3,2 km/h (1 Bft) W 270 0 min 0,000 mm 0,0 UV-I 0 W/m -1,9 C -0,9 C 9,7 km/h (2 Bft) 95,65 %
20.02.2020 04:16 -0,8 C 93 % 1027,6 hPa 0,0 l/m 1,6 km/h (1 Bft) W 270 0 min 0,000 mm 0,0 UV-I 0 W/m -1,8 C -0,8 C 6,4 km/h (2 Bft) 95,65 %
20.02.2020 04:15 -0,8 C 93 % 1027,6 hPa 0,0 l/m 6,4 km/h (2 Bft) W 270 0 min 0,000 mm 0,0 UV-I 0 W/m -1,8 C -3,1 C 9,7 km/h (2 Bft) 100,00 %
20.02.2020 04:14 -0,8 C 92 % 1027,6 hPa 0,0 l/m 4,8 km/h (1 Bft) W 270 0 min 0,000 mm 0,0 UV-I 0 W/m -1,9 C -2,4 C 6,4 km/h (2 Bft) 91,30 %
20.02.2020 04:13 -0,8 C 93 % 1027,7 hPa 0,0 l/m 1,6 km/h (1 Bft) W 270 0 min 0,000 mm 0,0 UV-I 0 W/m -1,8 C -0,8 C 3,2 km/h (1 Bft) 95,65 %
20.02.2020 04:12 -0,8 C 93 % 1027,7 hPa 0,0 l/m 3,2 km/h (1 Bft) W 270 0 min 0,000 mm 0,0 UV-I 0 W/m -1,8 C -0,8 C 4,8 km/h (1 Bft) 100,00 %
20.02.2020 04:11 -0,8 C 93 % 1027,6 hPa 0,0 l/m 4,8 km/h (1 Bft) W 270 0 min 0,000 mm 0,0 UV-I 0 W/m -1,8 C -2,4 C 4,8 km/h (1 Bft) 95,65 %
20.02.2020 04:10 -0,9 C 92 % 1027,7 hPa 0,0 l/m 4,8 km/h (1 Bft) W 270 0 min 0,000 mm 0,0 UV-I 0 W/m -2,0 C -2,5 C 6,4 km/h (2 Bft) 100,00 %
20.02.2020 04:09 -0,9 C 92 % 1027,6 hPa 0,0 l/m 3,2 km/h (1 Bft) W-NW 292 0 min 0,000 mm 0,0 UV-I 0 W/m -2,0 C -0,9 C 6,4 km/h (2 Bft) 86,96 %
20.02.2020 04:08 -0,9 C 92 % 1027,6 hPa 0,0 l/m 3,2 km/h (1 Bft) W-NW 292 0 min 0,000 mm 0,0 UV-I 0 W/m -2,0 C -0,9 C 4,8 km/h (1 Bft) 95,65 %
20.02.2020 04:07 -0,8 C 92 % 1027,8 hPa 0,0 l/m 3,2 km/h (1 Bft) W 270 0 min 0,000 mm 0,0 UV-I 0 W/m -1,9 C -0,8 C 6,4 km/h (2 Bft) 91,30 %
20.02.2020 04:06 -0,8 C 92 % 1027,6 hPa 0,0 l/m 3,2 km/h (1 Bft) W-SW 247 0 min 0,000 mm 0,0 UV-I 0 W/m -1,9 C -0,8 C 6,4 km/h (2 Bft) 95,65 %
20.02.2020 04:05 -0,8 C 92 % 1027,5 hPa 0,0 l/m 6,4 km/h (2 Bft) SW 225 0 min 0,000 mm 0,0 UV-I 0 W/m -1,9 C -3,1 C 11,3 km/h (2 Bft) 91,30 %
20.02.2020 04:04 -0,8 C 92 % 1027,5 hPa 0,0 l/m 6,4 km/h (2 Bft) W 270 0 min 0,000 mm 0,0 UV-I 0 W/m -1,9 C -3,1 C 9,7 km/h (2 Bft) 95,65 %
20.02.2020 04:03 -0,7 C 92 % 1027,5 hPa 0,0 l/m 4,8 km/h (1 Bft) W-NW 292 0 min 0,000 mm 0,0 UV-I 0 W/m -1,8 C -2,3 C 9,7 km/h (2 Bft) 95,65 %
20.02.2020 04:02 -0,7 C 93 % 1027,5 hPa 0,0 l/m 4,8 km/h (1 Bft) SW 225 0 min 0,000 mm 0,0 UV-I 0 W/m -1,7 C -2,3 C 9,7 km/h (2 Bft) 95,65 %
20.02.2020 04:01 -0,7 C 93 % 1027,5 hPa 0,0 l/m 6,4 km/h (2 Bft) W 270 0 min 0,000 mm 0,0 UV-I 0 W/m -1,7 C -3,0 C 9,7 km/h (2 Bft) 100,00 %
20.02.2020 04:00 -0,7 C 92 % 1027,6 hPa 0,0 l/m 4,8 km/h (1 Bft) W 270 0 min 0,000 mm 0,0 UV-I 0 W/m -1,8 C -2,3 C 9,7 km/h (2 Bft) 95,65 %
20.02.2020 03:59 -0,7 C 92 % 1027,5 hPa 0,0 l/m 8,0 km/h (2 Bft) W 270 0 min 0,000 mm 0,0 UV-I 0 W/m -1,8 C -3,6 C 12,9 km/h (3 Bft) 100,00 %
20.02.2020 03:58 -0,7 C 93 % 1027,6 hPa 0,0 l/m 4,8 km/h (1 Bft) W 270 0 min 0,000 mm 0,0 UV-I 0 W/m -1,7 C -2,3 C 6,4 km/h (2 Bft) 100,00 %
20.02.2020 03:57 -0,7 C 93 % 1027,6 hPa 0,0 l/m 4,8 km/h (1 Bft) W-SW 247 0 min 0,000 mm 0,0 UV-I 0 W/m -1,7 C -2,3 C 8,0 km/h (2 Bft) 100,00 %
20.02.2020 03:56 -0,8 C 93 % 1027,5 hPa 0,0 l/m 4,8 km/h (1 Bft) W-SW 247 0 min 0,000 mm 0,0 UV-I 0 W/m -1,8 C -2,4 C 9,7 km/h (2 Bft) 91,30 %
20.02.2020 03:55 -0,7 C 93 % 1027,6 hPa 0,0 l/m 9,7 km/h (2 Bft) W 270 0 min 0,000 mm 0,0 UV-I 0 W/m -1,7 C -4,1 C 14,5 km/h (3 Bft) 95,65 %
20.02.2020 03:54 -0,8 C 93 % 1027,7 hPa 0,0 l/m 8,0 km/h (2 Bft) W 270 0 min 0,000 mm 0,0 UV-I 0 W/m -1,8 C -3,7 C 12,9 km/h (3 Bft) 95,65 %
20.02.2020 03:53 -0,8 C 93 % 1027,7 hPa 0,0 l/m 6,4 km/h (2 Bft) W 270 0 min 0,000 mm 0,0 UV-I 0 W/m -1,8 C -3,1 C 9,7 km/h (2 Bft) 95,65 %
20.02.2020 03:52 -0,8 C 93 % 1027,6 hPa 0,0 l/m 9,7 km/h (2 Bft) W 270 0 min 0,000 mm 0,0 UV-I 0 W/m -1,8 C -4,2 C 14,5 km/h (3 Bft) 100,00 %
20.02.2020 03:51 -0,8 C 93 % 1027,7 hPa 0,0 l/m 9,7 km/h (2 Bft) W 270 0 min 0,000 mm 0,0 UV-I 0 W/m -1,8 C -4,2 C 12,9 km/h (3 Bft) 95,65 %
20.02.2020 03:50 -0,8 C 93 % 1027,7 hPa 0,0 l/m 9,7 km/h (2 Bft) W 270 0 min 0,000 mm 0,0 UV-I 0 W/m -1,8 C -4,2 C 16,1 km/h (3 Bft) 95,65 %
20.02.2020 03:49 -0,8 C 93 % 1027,6 hPa 0,0 l/m 8,0 km/h (2 Bft) W-SW 247 0 min 0,000 mm 0,0 UV-I 0 W/m -1,8 C -3,7 C 11,3 km/h (2 Bft) 100,00 %
20.02.2020 03:48 -0,7 C 93 % 1027,7 hPa 0,0 l/m 6,4 km/h (2 Bft) W 270 0 min 0,000 mm 0,0 UV-I 0 W/m -1,7 C -3,0 C 9,7 km/h (2 Bft) 100,00 %
20.02.2020 03:47 -0,7 C 93 % 1027,7 hPa 0,0 l/m 4,8 km/h (1 Bft) W-SW 247 0 min 0,000 mm 0,0 UV-I 0 W/m -1,7 C -2,3 C 6,4 km/h (2 Bft) 100,00 %
20.02.2020 03:46 -0,7 C 93 % 1027,7 hPa 0,0 l/m 6,4 km/h (2 Bft) W 270 0 min 0,000 mm 0,0 UV-I 0 W/m -1,7 C -3,0 C 12,9 km/h (3 Bft) 95,65 %
20.02.2020 03:45 -0,7 C 93 % 1027,7 hPa 0,0 l/m 3,2 km/h (1 Bft) W 270 0 min 0,000 mm 0,0 UV-I 0 W/m -1,7 C -0,7 C 9,7 km/h (2 Bft) 100,00 %
20.02.2020 03:44 -0,7 C 93 % 1027,6 hPa 0,0 l/m 8,0 km/h (2 Bft) W-SW 247 0 min 0,000 mm 0,0 UV-I 0 W/m -1,7 C -3,6 C 11,3 km/h (2 Bft) 100,00 %
20.02.2020 03:43 -0,7 C 93 % 1027,7 hPa 0,0 l/m 6,4 km/h (2 Bft) W-SW 247 0 min 0,000 mm 0,0 UV-I 0 W/m -1,7 C -3,0 C 9,7 km/h (2 Bft) 100,00 %
20.02.2020 03:42 -0,6 C 93 % 1027,7 hPa 0,0 l/m 8,0 km/h (2 Bft) W-SW 247 0 min 0,000 mm 0,0 UV-I 0 W/m -1,6 C -3,4 C 11,3 km/h (2 Bft) 100,00 %
20.02.2020 03:41 -0,6 C 93 % 1027,7 hPa 0,0 l/m 4,8 km/h (1 Bft) W-SW 247 0 min 0,000 mm 0,0 UV-I 0 W/m -1,6 C -2,2 C 9,7 km/h (2 Bft) 100,00 %
20.02.2020 03:40 -0,6 C 93 % 1027,7 hPa 0,0 l/m 4,8 km/h (1 Bft) W-SW 247 0 min 0,000 mm 0,0 UV-I 0 W/m -1,6 C -2,2 C 11,3 km/h (2 Bft) 100,00 %
20.02.2020 03:39 -0,6 C 93 % 1027,6 hPa 0,0 l/m 4,8 km/h (1 Bft) W 270 0 min 0,000 mm 0,0 UV-I 0 W/m -1,6 C -2,2 C 6,4 km/h (2 Bft) 95,65 %
20.02.2020 03:38 -0,6 C 92 % 1027,8 hPa 0,0 l/m 3,2 km/h (1 Bft) W 270 0 min 0,000 mm 0,0 UV-I 0 W/m -1,7 C -0,6 C 4,8 km/h (1 Bft) 100,00 %
20.02.2020 03:37 -0,5 C 92 % 1027,7 hPa 0,0 l/m 1,6 km/h (1 Bft) W-SW 247 0 min 0,000 mm 0,0 UV-I 0 W/m -1,6 C -0,5 C 4,8 km/h (1 Bft) 100,00 %
20.02.2020 03:36 -0,4 C 92 % 1027,7 hPa 0,0 l/m 3,2 km/h (1 Bft) W 270 0 min 0,000 mm 0,0 UV-I 0 W/m -1,5 C -0,4 C 4,8 km/h (1 Bft) 100,00 %
20.02.2020 03:35 -0,4 C 92 % 1027,6 hPa 0,0 l/m 3,2 km/h (1 Bft) W-SW 247 0 min 0,000 mm 0,0 UV-I 0 W/m -1,5 C -0,4 C 6,4 km/h (2 Bft) 100,00 %
20.02.2020 03:34 -0,4 C 92 % 1027,7 hPa 0,0 l/m 3,2 km/h (1 Bft) W 270 0 min 0,000 mm 0,0 UV-I 0 W/m -1,5 C -0,4 C 6,4 km/h (2 Bft) 100,00 %
20.02.2020 03:33 -0,4 C 92 % 1027,7 hPa 0,0 l/m 3,2 km/h (1 Bft) W 270 0 min 0,000 mm 0,0 UV-I 0 W/m -1,5 C -0,4 C 6,4 km/h (2 Bft) 100,00 %
20.02.2020 03:32 -0,4 C 92 % 1027,6 hPa 0,0 l/m 1,6 km/h (1 Bft) W 270 0 min 0,000 mm 0,0 UV-I 0 W/m -1,5 C -0,4 C 3,2 km/h (1 Bft) 95,65 %
20.02.2020 03:31 -0,4 C 92 % 1027,7 hPa 0,0 l/m 1,6 km/h (1 Bft) W 270 0 min 0,000 mm 0,0 UV-I 0 W/m -1,5 C -0,4 C 3,2 km/h (1 Bft) 95,65 %
20.02.2020 03:30 -0,3 C 92 % 1027,7 hPa 0,0 l/m 4,8 km/h (1 Bft) W 270 0 min 0,000 mm 0,0 UV-I 0 W/m -1,4 C -1,8 C 9,7 km/h (2 Bft) 95,65 %
20.02.2020 03:29 -0,3 C 92 % 1027,7 hPa 0,0 l/m 6,4 km/h (2 Bft) W 270 0 min 0,000 mm 0,0 UV-I 0 W/m -1,4 C -2,5 C 9,7 km/h (2 Bft) 95,65 %
20.02.2020 03:28 -0,3 C 92 % 1027,7 hPa 0,0 l/m 3,2 km/h (1 Bft) N-NW 337 0 min 0,000 mm 0,0 UV-I 0 W/m -1,4 C -0,3 C 4,8 km/h (1 Bft) 95,65 %
20.02.2020 03:27 -0,3 C 92 % 1027,7 hPa 0,0 l/m 3,2 km/h (1 Bft) W-NW 292 0 min 0,000 mm 0,0 UV-I 0 W/m -1,4 C -0,3 C 6,4 km/h (2 Bft) 100,00 %
20.02.2020 03:26 -0,2 C 92 % 1027,6 hPa 0,0 l/m 6,4 km/h (2 Bft) W 270 0 min 0,000 mm 0,0 UV-I 0 W/m -1,3 C -2,4 C 12,9 km/h (3 Bft) 100,00 %
20.02.2020 03:25 -0,2 C 92 % 1027,7 hPa 0,0 l/m 4,8 km/h (1 Bft) W 270 0 min 0,000 mm 0,0 UV-I 0 W/m -1,3 C -1,7 C 9,7 km/h (2 Bft) 95,65 %
20.02.2020 03:24 -0,2 C 92 % 1027,6 hPa 0,0 l/m 6,4 km/h (2 Bft) W-SW 247 0 min 0,000 mm 0,0 UV-I 0 W/m -1,3 C -2,4 C 9,7 km/h (2 Bft) 100,00 %
20.02.2020 03:23 -0,2 C 91 % 1027,6 hPa 0,0 l/m 3,2 km/h (1 Bft) W 270 0 min 0,000 mm 0,0 UV-I 0 W/m -1,5 C -0,2 C 4,8 km/h (1 Bft) 100,00 %
20.02.2020 03:22 -0,2 C 91 % 1027,7 hPa 0,0 l/m 1,6 km/h (1 Bft) W-SW 247 0 min 0,000 mm 0,0 UV-I 0 W/m -1,5 C -0,2 C 3,2 km/h (1 Bft) 100,00 %
20.02.2020 03:21 -0,2 C 91 % 1027,7 hPa 0,0 l/m 3,2 km/h (1 Bft) W 270 0 min 0,000 mm 0,0 UV-I 0 W/m -1,5 C -0,2 C 6,4 km/h (2 Bft) 95,65 %
20.02.2020 03:20 -0,2 C 91 % 1027,7 hPa 0,0 l/m 9,7 km/h (2 Bft) W 270 0 min 0,000 mm 0,0 UV-I 0 W/m -1,5 C -3,5 C 14,5 km/h (3 Bft) 100,00 %
20.02.2020 03:19 -0,2 C 91 % 1027,7 hPa 0,0 l/m 9,7 km/h (2 Bft) W-SW 247 0 min 0,000 mm 0,0 UV-I 0 W/m -1,5 C -3,5 C 16,1 km/h (3 Bft) 100,00 %
20.02.2020 03:18 -0,2 C 91 % 1027,7 hPa 0,0 l/m 4,8 km/h (1 Bft) W 270 0 min 0,000 mm 0,0 UV-I 0 W/m -1,5 C -1,7 C 11,3 km/h (2 Bft) 91,30 %
20.02.2020 03:17 -0,1 C 92 % 1027,7 hPa 0,0 l/m 6,4 km/h (2 Bft) W 270 0 min 0,000 mm 0,0 UV-I 0 W/m -1,2 C -2,3 C 14,5 km/h (3 Bft) 100,00 %
20.02.2020 03:16 -0,2 C 91 % 1027,6 hPa 0,0 l/m 12,9 km/h (3 Bft) W 270 0 min 0,000 mm 0,0 UV-I 0 W/m -1,5 C -4,2 C 17,7 km/h (3 Bft) 100,00 %
20.02.2020 03:15 -0,1 C 91 % 1027,7 hPa 0,0 l/m 8,0 km/h (2 Bft) W 270 0 min 0,000 mm 0,0 UV-I 0 W/m -1,4 C -2,9 C 12,9 km/h (3 Bft) 100,00 %
20.02.2020 03:14 -0,2 C 91 % 1027,8 hPa 0,0 l/m 9,7 km/h (2 Bft) W 270 0 min 0,000 mm 0,0 UV-I 0 W/m -1,5 C -3,5 C 14,5 km/h (3 Bft) 100,00 %
20.02.2020 03:13 -0,1 C 91 % 1027,7 hPa 0,0 l/m 8,0 km/h (2 Bft) W 270 0 min 0,000 mm 0,0 UV-I 0 W/m -1,4 C -2,9 C 14,5 km/h (3 Bft) 100,00 %
20.02.2020 03:12 -0,1 C 91 % 1027,8 hPa 0,0 l/m 8,0 km/h (2 Bft) W 270 0 min 0,000 mm 0,0 UV-I 0 W/m -1,4 C -2,9 C 11,3 km/h (2 Bft) 95,65 %
20.02.2020 03:11 -0,1 C 91 % 1027,7 hPa 0,0 l/m 12,9 km/h (3 Bft) W 270 0 min 0,000 mm 0,0 UV-I 0 W/m -1,4 C -4,1 C 17,7 km/h (3 Bft) 95,65 %
20.02.2020 03:10 -0,1 C 91 % 1027,7 hPa 0,0 l/m 11,3 km/h (2 Bft) W 270 0 min 0,000 mm 0,0 UV-I 0 W/m -1,4 C -3,8 C 19,3 km/h (3 Bft) 95,65 %
20.02.2020 03:09 -0,1 C 91 % 1027,7 hPa 0,0 l/m 9,7 km/h (2 Bft) W 270 0 min 0,000 mm 0,0 UV-I 0 W/m -1,4 C -3,4 C 14,5 km/h (3 Bft) 100,00 %
20.02.2020 03:08 -0,1 C 91 % 1027,7 hPa 0,0 l/m 8,0 km/h (2 Bft) W-SW 247 0 min 0,000 mm 0,0 UV-I 0 W/m -1,4 C -2,9 C 12,9 km/h (3 Bft) 100,00 %
20.02.2020 03:07 -0,2 C 92 % 1027,6 hPa 0,0 l/m 12,9 km/h (3 Bft) W-SW 247 0 min 0,000 mm 0,0 UV-I 0 W/m -1,3 C -4,2 C 16,1 km/h (3 Bft) 100,00 %
20.02.2020 03:06 -0,1 C 91 % 1027,7 hPa 0,0 l/m 8,0 km/h (2 Bft) W-SW 247 0 min 0,000 mm 0,0 UV-I 0 W/m -1,4 C -2,9 C 12,9 km/h (3 Bft) 100,00 %
20.02.2020 03:05 -0,1 C 92 % 1027,7 hPa 0,0 l/m 9,7 km/h (2 Bft) W-SW 247 0 min 0,000 mm 0,0 UV-I 0 W/m -1,2 C -3,4 C 14,5 km/h (3 Bft) 100,00 %
20.02.2020 03:04 -0,1 C 91 % 1027,7 hPa 0,0 l/m 8,0 km/h (2 Bft) W 270 0 min 0,000 mm 0,0 UV-I 0 W/m -1,4 C -2,9 C 14,5 km/h (3 Bft) 95,65 %
20.02.2020 03:03 -0,1 C 91 % 1027,7 hPa 0,0 l/m 14,5 km/h (3 Bft) W 270 0 min 0,000 mm 0,0 UV-I 0 W/m -1,4 C -4,4 C 19,3 km/h (3 Bft) 100,00 %
20.02.2020 03:02 -0,2 C 91 % 1027,7 hPa 0,0 l/m 11,3 km/h (2 Bft) W 270 0 min 0,000 mm 0,0 UV-I 0 W/m -1,5 C -3,9 C 17,7 km/h (3 Bft) 95,65 %
20.02.2020 03:01 -0,2 C 92 % 1027,7 hPa 0,0 l/m 8,0 km/h (2 Bft) W 270 0 min 0,000 mm 0,0 UV-I 0 W/m -1,3 C -3,0 C 14,5 km/h (3 Bft) 100,00 %
20.02.2020 03:00 -0,2 C 92 % 1027,7 hPa 0,0 l/m 6,4 km/h (2 Bft) W 270 0 min 0,000 mm 0,0 UV-I 0 W/m -1,3 C -2,4 C 16,1 km/h (3 Bft) 100,00 %
20.02.2020 02:59 -0,2 C 92 % 1027,8 hPa 0,0 l/m 11,3 km/h (2 Bft) W 270 0 min 0,000 mm 0,0 UV-I 0 W/m -1,3 C -3,9 C 19,3 km/h (3 Bft) 95,65 %
20.02.2020 02:58 -0,2 C 92 % 1027,7 hPa 0,0 l/m 6,4 km/h (2 Bft) W 270 0 min 0,000 mm 0,0 UV-I 0 W/m -1,3 C -2,4 C 12,9 km/h (3 Bft) 100,00 %
20.02.2020 02:57 -0,2 C 92 % 1027,7 hPa 0,0 l/m 4,8 km/h (1 Bft) W 270 0 min 0,000 mm 0,0 UV-I 0 W/m -1,3 C -1,7 C 11,3 km/h (2 Bft) 95,65 %
20.02.2020 02:56 -0,2 C 92 % 1027,7 hPa 0,0 l/m 11,3 km/h (2 Bft) W 270 0 min 0,000 mm 0,0 UV-I 0 W/m -1,3 C -3,9 C 17,7 km/h (3 Bft) 100,00 %
20.02.2020 02:55 -0,2 C 92 % 1027,7 hPa 0,0 l/m 8,0 km/h (2 Bft) W 270 0 min 0,000 mm 0,0 UV-I 0 W/m -1,3 C -3,0 C 12,9 km/h (3 Bft) 100,00 %
20.02.2020 02:54 -0,2 C 92 % 1027,7 hPa 0,0 l/m 12,9 km/h (3 Bft) W 270 0 min 0,000 mm 0,0 UV-I 0 W/m -1,3 C -4,2 C 16,1 km/h (3 Bft) 100,00 %
20.02.2020 02:53 -0,2 C 92 % 1027,6 hPa 0,0 l/m 12,9 km/h (3 Bft) W 270 0 min 0,000 mm 0,0 UV-I 0 W/m -1,3 C -4,2 C 17,7 km/h (3 Bft) 100,00 %
20.02.2020 02:52 -0,2 C 92 % 1027,7 hPa 0,0 l/m 16,1 km/h (3 Bft) W 270 0 min 0,000 mm 0,0 UV-I 0 W/m -1,3 C -4,9 C 22,5 km/h (4 Bft) 100,00 %
20.02.2020 02:51 -0,2 C 92 % 1027,7 hPa 0,0 l/m 11,3 km/h (2 Bft) W 270 0 min 0,000 mm 0,0 UV-I 0 W/m -1,3 C -3,9 C 17,7 km/h (3 Bft) 100,00 %
20.02.2020 02:50 -0,2 C 92 % 1027,6 hPa 0,0 l/m 12,9 km/h (3 Bft) W 270 0 min 0,000 mm 0,0 UV-I 0 W/m -1,3 C -4,2 C 16,1 km/h (3 Bft) 91,30 %
20.02.2020 02:49 -0,2 C 92 % 1027,7 hPa 0,0 l/m 9,7 km/h (2 Bft) W 270 0 min 0,000 mm 0,0 UV-I 0 W/m -1,3 C -3,5 C 16,1 km/h (3 Bft) 100,00 %
20.02.2020 02:48 -0,3 C 92 % 1027,6 hPa 0,0 l/m 12,9 km/h (3 Bft) W-SW 247 0 min 0,000 mm 0,0 UV-I 0 W/m -1,4 C -4,4 C 17,7 km/h (3 Bft) 100,00 %
20.02.2020 02:47 -0,2 C 92 % 1027,7 hPa 0,0 l/m 12,9 km/h (3 Bft) W-SW 247 0 min 0,000 mm 0,0 UV-I 0 W/m -1,3 C -4,2 C 22,5 km/h (4 Bft) 100,00 %
20.02.2020 02:46 -0,3 C 93 % 1027,6 hPa 0,0 l/m 12,9 km/h (3 Bft) W-SW 247 0 min 0,000 mm 0,0 UV-I 0 W/m -1,3 C -4,4 C 17,7 km/h (3 Bft) 95,65 %
20.02.2020 02:45 -0,3 C 93 % 1027,7 hPa 0,0 l/m 11,3 km/h (2 Bft) W-SW 247 0 min 0,000 mm 0,0 UV-I 0 W/m -1,3 C -4,0 C 16,1 km/h (3 Bft) 100,00 %
20.02.2020 02:44 -0,2 C 93 % 1027,7 hPa 0,0 l/m 11,3 km/h (2 Bft) W 270 0 min 0,000 mm 0,0 UV-I 0 W/m -1,2 C -3,9 C 16,1 km/h (3 Bft) 100,00 %
20.02.2020 02:43 -0,2 C 93 % 1027,7 hPa 0,0 l/m 11,3 km/h (2 Bft) W 270 0 min 0,000 mm 0,0 UV-I 0 W/m -1,2 C -3,9 C 16,1 km/h (3 Bft) 95,65 %
20.02.2020 02:42 -0,2 C 93 % 1027,7 hPa 0,0 l/m 14,5 km/h (3 Bft) W-SW 247 0 min 0,000 mm 0,0 UV-I 0 W/m -1,2 C -4,6 C 20,9 km/h (4 Bft) 100,00 %
20.02.2020 02:41 -0,2 C 93 % 1027,7 hPa 0,0 l/m 12,9 km/h (3 Bft) W 270 0 min 0,000 mm 0,0 UV-I 0 W/m -1,2 C -4,2 C 19,3 km/h (3 Bft) 95,65 %
20.02.2020 02:40 -0,2 C 93 % 1027,7 hPa 0,0 l/m 12,9 km/h (3 Bft) W-SW 247 0 min 0,000 mm 0,0 UV-I 0 W/m -1,2 C -4,2 C 17,7 km/h (3 Bft) 100,00 %
20.02.2020 02:39 -0,2 C 93 % 1027,7 hPa 0,0 l/m 14,5 km/h (3 Bft) W-SW 247 0 min 0,000 mm 0,0 UV-I 0 W/m -1,2 C -4,6 C 19,3 km/h (3 Bft) 100,00 %
20.02.2020 02:38 -0,2 C 93 % 1027,7 hPa 0,0 l/m 9,7 km/h (2 Bft) W 270 0 min 0,000 mm 0,0 UV-I 0 W/m -1,2 C -3,5 C 16,1 km/h (3 Bft) 100,00 %
20.02.2020 02:37 -0,2 C 93 % 1027,7 hPa 0,0 l/m 6,4 km/h (2 Bft) W 270 0 min 0,000 mm 0,0 UV-I 0 W/m -1,2 C -2,4 C 9,7 km/h (2 Bft) 100,00 %
20.02.2020 02:36 -0,2 C 93 % 1027,7 hPa 0,0 l/m 9,7 km/h (2 Bft) W-SW 247 0 min 0,000 mm 0,0 UV-I 0 W/m -1,2 C -3,5 C 14,5 km/h (3 Bft) 95,65 %
20.02.2020 02:35 -0,2 C 93 % 1027,7 hPa 0,0 l/m 9,7 km/h (2 Bft) W-SW 247 0 min 0,000 mm 0,0 UV-I 0 W/m -1,2 C -3,5 C 14,5 km/h (3 Bft) 100,00 %
20.02.2020 02:34 -0,2 C 93 % 1027,6 hPa 0,0 l/m 11,3 km/h (2 Bft) W-SW 247 0 min 0,000 mm 0,0 UV-I 0 W/m -1,2 C -3,9 C 14,5 km/h (3 Bft) 95,65 %
20.02.2020 02:33 -0,2 C 93 % 1027,7 hPa 0,0 l/m 8,0 km/h (2 Bft) W 270 0 min 0,000 mm 0,0 UV-I 0 W/m -1,2 C -3,0 C 11,3 km/h (2 Bft) 100,00 %
20.02.2020 02:32 -0,2 C 93 % 1027,7 hPa 0,0 l/m 6,4 km/h (2 Bft) W-SW 247 0 min 0,000 mm 0,0 UV-I 0 W/m -1,2 C -2,4 C 14,5 km/h (3 Bft) 95,65 %
20.02.2020 02:31 -0,2 C 93 % 1027,7 hPa 0,0 l/m 6,4 km/h (2 Bft) W 270 0 min 0,000 mm 0,0 UV-I 0 W/m -1,2 C -2,4 C 11,3 km/h (2 Bft) 95,65 %
20.02.2020 02:30 -0,2 C 93 % 1027,6 hPa 0,0 l/m 9,7 km/h (2 Bft) W 270 0 min 0,000 mm 0,0 UV-I 0 W/m -1,2 C -3,5 C 12,9 km/h (3 Bft) 95,65 %
20.02.2020 02:29 -0,2 C 93 % 1027,6 hPa 0,0 l/m 8,0 km/h (2 Bft) W 270 0 min 0,000 mm 0,0 UV-I 0 W/m -1,2 C -3,0 C 12,9 km/h (3 Bft) 91,30 %
20.02.2020 02:28 -0,2 C 93 % 1027,7 hPa 0,0 l/m 8,0 km/h (2 Bft) W 270 0 min 0,000 mm 0,0 UV-I 0 W/m -1,2 C -3,0 C 14,5 km/h (3 Bft) 100,00 %
20.02.2020 02:27 -0,2 C 93 % 1027,7 hPa 0,0 l/m 9,7 km/h (2 Bft) W 270 0 min 0,000 mm 0,0 UV-I 0 W/m -1,2 C -3,5 C 14,5 km/h (3 Bft) 95,65 %
20.02.2020 02:26 -0,2 C 93 % 1027,7 hPa 0,0 l/m 8,0 km/h (2 Bft) W 270 0 min 0,000 mm 0,0 UV-I 0 W/m -1,2 C -3,0 C 12,9 km/h (3 Bft) 95,65 %
20.02.2020 02:25 -0,2 C 93 % 1027,6 hPa 0,0 l/m 11,3 km/h (2 Bft) W-SW 247 0 min 0,000 mm 0,0 UV-I 0 W/m -1,2 C -3,9 C 16,1 km/h (3 Bft) 91,30 %
20.02.2020 02:24 -0,2 C 93 % 1027,6 hPa 0,0 l/m 9,7 km/h (2 Bft) W 270 0 min 0,000 mm 0,0 UV-I 0 W/m -1,2 C -3,5 C 16,1 km/h (3 Bft) 100,00 %
20.02.2020 02:23 -0,2 C 93 % 1027,6 hPa 0,0 l/m 11,3 km/h (2 Bft) W 270 0 min 0,000 mm 0,0 UV-I 0 W/m -1,2 C -3,9 C 16,1 km/h (3 Bft) 95,65 %
20.02.2020 02:22 -0,2 C 93 % 1027,6 hPa 0,0 l/m 9,7 km/h (2 Bft) W 270 0 min 0,000 mm 0,0 UV-I 0 W/m -1,2 C -3,5 C 12,9 km/h (3 Bft) 91,30 %
20.02.2020 02:21 -0,2 C 93 % 1027,6 hPa 0,0 l/m 8,0 km/h (2 Bft) W 270 0 min 0,000 mm 0,0 UV-I 0 W/m -1,2 C -3,0 C 11,3 km/h (2 Bft) 95,65 %
20.02.2020 02:20 -0,2 C 93 % 1027,6 hPa 0,0 l/m 9,7 km/h (2 Bft) W 270 0 min 0,000 mm 0,0 UV-I 0 W/m -1,2 C -3,5 C 16,1 km/h (3 Bft) 95,65 %
20.02.2020 02:19 -0,2 C 93 % 1027,6 hPa 0,0 l/m 6,4 km/h (2 Bft) W 270 0 min 0,000 mm 0,0 UV-I 0 W/m -1,2 C -2,4 C 9,7 km/h (2 Bft) 100,00 %
20.02.2020 02:18 -0,2 C 93 % 1027,6 hPa 0,0 l/m 6,4 km/h (2 Bft) W 270 0 min 0,000 mm 0,0 UV-I 0 W/m -1,2 C -2,4 C 12,9 km/h (3 Bft) 95,65 %
20.02.2020 02:17 -0,2 C 93 % 1027,6 hPa 0,0 l/m 11,3 km/h (2 Bft) W 270 0 min 0,000 mm 0,0 UV-I 0 W/m -1,2 C -3,9 C 16,1 km/h (3 Bft) 95,65 %
20.02.2020 02:16 -0,2 C 93 % 1027,7 hPa 0,0 l/m 6,4 km/h (2 Bft) W 270 0 min 0,000 mm 0,0 UV-I 0 W/m -1,2 C -2,4 C 12,9 km/h (3 Bft) 95,65 %
20.02.2020 02:15 -0,2 C 93 % 1027,7 hPa 0,0 l/m 8,0 km/h (2 Bft) W 270 0 min 0,000 mm 0,0 UV-I 0 W/m -1,2 C -3,0 C 11,3 km/h (2 Bft) 91,30 %
20.02.2020 02:14 -0,2 C 93 % 1027,7 hPa 0,0 l/m 4,8 km/h (1 Bft) W 270 0 min 0,000 mm 0,0 UV-I 0 W/m -1,2 C -1,7 C 8,0 km/h (2 Bft) 95,65 %
20.02.2020 02:13 -0,2 C 93 % 1027,7 hPa 0,0 l/m 8,0 km/h (2 Bft) W 270 0 min 0,000 mm 0,0 UV-I 0 W/m -1,2 C -3,0 C 11,3 km/h (2 Bft) 100,00 %
20.02.2020 02:12 -0,2 C 93 % 1027,7 hPa 0,0 l/m 8,0 km/h (2 Bft) W-SW 247 0 min 0,000 mm 0,0 UV-I 0 W/m -1,2 C -3,0 C 11,3 km/h (2 Bft) 95,65 %
20.02.2020 02:11 -0,1 C 92 % 1027,7 hPa 0,0 l/m 9,7 km/h (2 Bft) W-SW 247 0 min 0,000 mm 0,0 UV-I 0 W/m -1,2 C -3,4 C 12,9 km/h (3 Bft) 95,65 %
20.02.2020 02:10 -0,1 C 93 % 1027,6 hPa 0,0 l/m 3,2 km/h (1 Bft) W-NW 292 0 min 0,000 mm 0,0 UV-I 0 W/m -1,1 C -0,1 C 6,4 km/h (2 Bft) 100,00 %
20.02.2020 02:09 -0,1 C 92 % 1027,6 hPa 0,0 l/m 8,0 km/h (2 Bft) W 270 0 min 0,000 mm 0,0 UV-I 0 W/m -1,2 C -2,9 C 12,9 km/h (3 Bft) 95,65 %
20.02.2020 02:08 -0,1 C 92 % 1027,7 hPa 0,0 l/m 8,0 km/h (2 Bft) W 270 0 min 0,000 mm 0,0 UV-I 0 W/m -1,2 C -2,9 C 11,3 km/h (2 Bft) 91,30 %
20.02.2020 02:07 -0,1 C 92 % 1027,7 hPa 0,0 l/m 8,0 km/h (2 Bft) W 270 0 min 0,000 mm 0,0 UV-I 0 W/m -1,2 C -2,9 C 11,3 km/h (2 Bft) 91,30 %
20.02.2020 02:06 -0,1 C 92 % 1027,8 hPa 0,0 l/m 6,4 km/h (2 Bft) W-NW 292 0 min 0,000 mm 0,0 UV-I 0 W/m -1,2 C -2,3 C 12,9 km/h (3 Bft) 95,65 %
20.02.2020 02:05 -0,1 C 92 % 1027,7 hPa 0,0 l/m 11,3 km/h (2 Bft) W 270 0 min 0,000 mm 0,0 UV-I 0 W/m -1,2 C -3,8 C 16,1 km/h (3 Bft) 91,30 %
20.02.2020 02:04 -0,1 C 92 % 1027,6 hPa 0,0 l/m 11,3 km/h (2 Bft) W 270 0 min 0,000 mm 0,0 UV-I 0 W/m -1,2 C -3,8 C 19,3 km/h (3 Bft) 100,00 %
20.02.2020 02:03 -0,1 C 93 % 1027,7 hPa 0,0 l/m 11,3 km/h (2 Bft) W 270 0 min 0,000 mm 0,0 UV-I 0 W/m -1,1 C -3,8 C 16,1 km/h (3 Bft) 91,30 %
20.02.2020 02:02 -0,1 C 92 % 1027,7 hPa 0,0 l/m 9,7 km/h (2 Bft) W 270 0 min 0,000 mm 0,0 UV-I 0 W/m -1,2 C -3,4 C 14,5 km/h (3 Bft) 95,65 %
20.02.2020 02:01 -0,1 C 92 % 1027,6 hPa 0,0 l/m 11,3 km/h (2 Bft) W 270 0 min 0,000 mm 0,0 UV-I 0 W/m -1,2 C -3,8 C 14,5 km/h (3 Bft) 91,30 %
20.02.2020 02:00 -0,1 C 92 % 1027,7 hPa 0,0 l/m 11,3 km/h (2 Bft) W-SW 247 0 min 0,000 mm 0,0 UV-I 0 W/m -1,2 C -3,8 C 17,7 km/h (3 Bft) 95,65 %
20.02.2020 01:59 -0,1 C 93 % 1027,7 hPa 0,0 l/m 9,7 km/h (2 Bft) W 270 0 min 0,000 mm 0,0 UV-I 0 W/m -1,1 C -3,4 C 16,1 km/h (3 Bft) 100,00 %
20.02.2020 01:58 -0,1 C 93 % 1027,7 hPa 0,0 l/m 11,3 km/h (2 Bft) W 270 0 min 0,000 mm 0,0 UV-I 0 W/m -1,1 C -3,8 C 20,9 km/h (4 Bft) 95,65 %
20.02.2020 01:57 -0,2 C 93 % 1027,6 hPa 0,0 l/m 11,3 km/h (2 Bft) W-SW 247 0 min 0,000 mm 0,0 UV-I 0 W/m -1,2 C -3,9 C 16,1 km/h (3 Bft) 100,00 %
20.02.2020 01:56 -0,1 C 93 % 1027,7 hPa 0,0 l/m 9,7 km/h (2 Bft) W-SW 247 0 min 0,000 mm 0,0 UV-I 0 W/m -1,1 C -3,4 C 14,5 km/h (3 Bft) 95,65 %
20.02.2020 01:55 -0,2 C 93 % 1027,6 hPa 0,0 l/m 11,3 km/h (2 Bft) W 270 0 min 0,000 mm 0,0 UV-I 0 W/m -1,2 C -3,9 C 12,9 km/h (3 Bft) 95,65 %
20.02.2020 01:54 -0,1 C 93 % 1027,7 hPa 0,0 l/m 6,4 km/h (2 Bft) NW 315 0 min 0,000 mm 0,0 UV-I 0 W/m -1,1 C -2,3 C 9,7 km/h (2 Bft) 91,30 %
20.02.2020 01:53 -0,2 C 93 % 1027,7 hPa 0,0 l/m 12,9 km/h (3 Bft) W 270 0 min 0,000 mm 0,0 UV-I 0 W/m -1,2 C -4,2 C 17,7 km/h (3 Bft) 100,00 %
20.02.2020 01:52 -0,2 C 93 % 1027,7 hPa 0,0 l/m 14,5 km/h (3 Bft) W-SW 247 0 min 0,000 mm 0,0 UV-I 0 W/m -1,2 C -4,6 C 19,3 km/h (3 Bft) 100,00 %
20.02.2020 01:51 -0,2 C 93 % 1027,7 hPa 0,0 l/m 14,5 km/h (3 Bft) W 270 0 min 0,000 mm 0,0 UV-I 0 W/m -1,2 C -4,6 C 17,7 km/h (3 Bft) 95,65 %
20.02.2020 01:50 -0,2 C 93 % 1027,7 hPa 0,0 l/m 12,9 km/h (3 Bft) W 270 0 min 0,000 mm 0,0 UV-I 0 W/m -1,2 C -4,2 C 17,7 km/h (3 Bft) 100,00 %
20.02.2020 01:49 -0,2 C 93 % 1027,6 hPa 0,0 l/m 11,3 km/h (2 Bft) W 270 0 min 0,000 mm 0,0 UV-I 0 W/m -1,2 C -3,9 C 14,5 km/h (3 Bft) 100,00 %
20.02.2020 01:48 -0,2 C 93 % 1027,7 hPa 0,0 l/m 14,5 km/h (3 Bft) W-SW 247 0 min 0,000 mm 0,0 UV-I 0 W/m -1,2 C -4,6 C 20,9 km/h (4 Bft) 100,00 %
20.02.2020 01:47 -0,2 C 93 % 1027,7 hPa 0,0 l/m 14,5 km/h (3 Bft) W-SW 247 0 min 0,000 mm 0,0 UV-I 0 W/m -1,2 C -4,6 C 22,5 km/h (4 Bft) 91,30 %
20.02.2020 01:46 -0,2 C 93 % 1027,6 hPa 0,0 l/m 12,9 km/h (3 Bft) W 270 0 min 0,000 mm 0,0 UV-I 0 W/m -1,2 C -4,2 C 19,3 km/h (3 Bft) 100,00 %
20.02.2020 01:45 -0,2 C 93 % 1027,7 hPa 0,0 l/m 12,9 km/h (3 Bft) W 270 0 min 0,000 mm 0,0 UV-I 0 W/m -1,2 C -4,2 C 19,3 km/h (3 Bft) 100,00 %
20.02.2020 01:44 -0,2 C 93 % 1027,6 hPa 0,0 l/m 12,9 km/h (3 Bft) W 270 0 min 0,000 mm 0,0 UV-I 0 W/m -1,2 C -4,2 C 20,9 km/h (4 Bft) 100,00 %
20.02.2020 01:43 -0,2 C 93 % 1027,7 hPa 0,0 l/m 11,3 km/h (2 Bft) W-SW 247 0 min 0,000 mm 0,0 UV-I 0 W/m -1,2 C -3,9 C 19,3 km/h (3 Bft) 100,00 %
20.02.2020 01:42 -0,2 C 93 % 1027,6 hPa 0,0 l/m 14,5 km/h (3 Bft) W 270 0 min 0,000 mm 0,0 UV-I 0 W/m -1,2 C -4,6 C 17,7 km/h (3 Bft) 100,00 %
20.02.2020 01:41 -0,2 C 93 % 1027,6 hPa 0,0 l/m 14,5 km/h (3 Bft) W-SW 247 0 min 0,000 mm 0,0 UV-I 0 W/m -1,2 C -4,6 C 20,9 km/h (4 Bft) 100,00 %
20.02.2020 01:40 -0,2 C 93 % 1027,6 hPa 0,0 l/m 12,9 km/h (3 Bft) W 270 0 min 0,000 mm 0,0 UV-I 0 W/m -1,2 C -4,2 C 22,5 km/h (4 Bft) 95,65 %
20.02.2020 01:39 -0,2 C 94 % 1027,6 hPa 0,0 l/m 12,9 km/h (3 Bft) W 270 0 min 0,000 mm 0,0 UV-I 0 W/m -1,0 C -4,2 C 19,3 km/h (3 Bft) 100,00 %
20.02.2020 01:38 -0,2 C 94 % 1027,6 hPa 0,0 l/m 12,9 km/h (3 Bft) W-SW 247 0 min 0,000 mm 0,0 UV-I 0 W/m -1,0 C -4,2 C 19,3 km/h (3 Bft) 95,65 %
20.02.2020 01:37 -0,2 C 94 % 1027,6 hPa 0,0 l/m 11,3 km/h (2 Bft) W-SW 247 0 min 0,000 mm 0,0 UV-I 0 W/m -1,0 C -3,9 C 20,9 km/h (4 Bft) 100,00 %
20.02.2020 01:36 -0,2 C 94 % 1027,6 hPa 0,0 l/m 14,5 km/h (3 Bft) W 270 0 min 0,000 mm 0,0 UV-I 0 W/m -1,0 C -4,6 C 20,9 km/h (4 Bft) 100,00 %
20.02.2020 01:35 -0,3 C 94 % 1027,6 hPa 0,0 l/m 9,7 km/h (2 Bft) W-SW 247 0 min 0,000 mm 0,0 UV-I 0 W/m -1,1 C -3,6 C 17,7 km/h (3 Bft) 100,00 %
20.02.2020 01:34 -0,3 C 94 % 1027,6 hPa 0,0 l/m 9,7 km/h (2 Bft) W-SW 247 0 min 0,000 mm 0,0 UV-I 0 W/m -1,1 C -3,6 C 16,1 km/h (3 Bft) 100,00 %
20.02.2020 01:33 -0,3 C 94 % 1027,6 hPa 0,0 l/m 9,7 km/h (2 Bft) W-SW 247 0 min 0,000 mm 0,0 UV-I 0 W/m -1,1 C -3,6 C 16,1 km/h (3 Bft) 95,65 %
20.02.2020 01:32 -0,3 C 94 % 1027,6 hPa 0,0 l/m 14,5 km/h (3 Bft) W-SW 247 0 min 0,000 mm 0,0 UV-I 0 W/m -1,1 C -4,7 C 19,3 km/h (3 Bft) 100,00 %
20.02.2020 01:31 -0,3 C 94 % 1027,5 hPa 0,0 l/m 12,9 km/h (3 Bft) W-SW 247 0 min 0,000 mm 0,0 UV-I 0 W/m -1,1 C -4,4 C 17,7 km/h (3 Bft) 100,00 %
20.02.2020 01:30 -0,3 C 94 % 1027,5 hPa 0,0 l/m 6,4 km/h (2 Bft) W-SW 247 0 min 0,000 mm 0,0 UV-I 0 W/m -1,1 C -2,5 C 14,5 km/h (3 Bft) 95,65 %
20.02.2020 01:29 -0,3 C 94 % 1027,6 hPa 0,0 l/m 8,0 km/h (2 Bft) W 270 0 min 0,000 mm 0,0 UV-I 0 W/m -1,1 C -3,1 C 12,9 km/h (3 Bft) 95,65 %
20.02.2020 01:28 -0,3 C 94 % 1027,6 hPa 0,0 l/m 11,3 km/h (2 Bft) W 270 0 min 0,000 mm 0,0 UV-I 0 W/m -1,1 C -4,0 C 16,1 km/h (3 Bft) 100,00 %
20.02.2020 01:27 -0,3 C 94 % 1027,5 hPa 0,0 l/m 14,5 km/h (3 Bft) W 270 0 min 0,000 mm 0,0 UV-I 0 W/m -1,1 C -4,7 C 19,3 km/h (3 Bft) 100,00 %
20.02.2020 01:26 -0,3 C 94 % 1027,5 hPa 0,0 l/m 14,5 km/h (3 Bft) W 270 0 min 0,000 mm 0,0 UV-I 0 W/m -1,1 C -4,7 C 17,7 km/h (3 Bft) 91,30 %
20.02.2020 01:25 -0,3 C 94 % 1027,4 hPa 0,0 l/m 17,7 km/h (3 Bft) W-SW 247 0 min 0,000 mm 0,0 UV-I 0 W/m -1,1 C -5,3 C 25,7 km/h (4 Bft) 100,00 %
20.02.2020 01:24 -0,3 C 94 % 1027,4 hPa 0,0 l/m 17,7 km/h (3 Bft) W 270 0 min 0,000 mm 0,0 UV-I 0 W/m -1,1 C -5,3 C 22,5 km/h (4 Bft) 100,00 %
20.02.2020 01:23 -0,3 C 94 % 1027,4 hPa 0,0 l/m 16,1 km/h (3 Bft) W 270 0 min 0,000 mm 0,0 UV-I 0 W/m -1,1 C -5,0 C 22,5 km/h (4 Bft) 100,00 %
20.02.2020 01:22 -0,3 C 94 % 1027,4 hPa 0,0 l/m 17,7 km/h (3 Bft) W 270 0 min 0,000 mm 0,0 UV-I 0 W/m -1,1 C -5,3 C 27,4 km/h (4 Bft) 95,65 %
20.02.2020 01:21 -0,3 C 94 % 1027,3 hPa 0,0 l/m 17,7 km/h (3 Bft) W-SW 247 0 min 0,000 mm 0,0 UV-I 0 W/m -1,1 C -5,3 C 27,4 km/h (4 Bft) 100,00 %
20.02.2020 01:20 -0,3 C 94 % 1027,3 hPa 0,0 l/m 16,1 km/h (3 Bft) W 270 0 min 0,000 mm 0,0 UV-I 0 W/m -1,1 C -5,0 C 22,5 km/h (4 Bft) 100,00 %
20.02.2020 01:19 -0,3 C 94 % 1027,4 hPa 0,0 l/m 12,9 km/h (3 Bft) W 270 0 min 0,000 mm 0,0 UV-I 0 W/m -1,1 C -4,4 C 17,7 km/h (3 Bft) 91,30 %
20.02.2020 01:18 -0,3 C 94 % 1027,3 hPa 0,0 l/m 14,5 km/h (3 Bft) W 270 0 min 0,000 mm 0,0 UV-I 0 W/m -1,1 C -4,7 C 22,5 km/h (4 Bft) 100,00 %
20.02.2020 01:17 -0,3 C 94 % 1027,4 hPa 0,0 l/m 16,1 km/h (3 Bft) W 270 0 min 0,000 mm 0,0 UV-I 0 W/m -1,1 C -5,0 C 25,7 km/h (4 Bft) 100,00 %
20.02.2020 01:16 -0,3 C 94 % 1027,3 hPa 0,0 l/m 14,5 km/h (3 Bft) W 270 0 min 0,000 mm 0,0 UV-I 0 W/m -1,1 C -4,7 C 25,7 km/h (4 Bft) 100,00 %
20.02.2020 01:15 -0,3 C 94 % 1027,5 hPa 0,0 l/m 9,7 km/h (2 Bft) W 270 0 min 0,000 mm 0,0 UV-I 0 W/m -1,1 C -3,6 C 16,1 km/h (3 Bft) 100,00 %
20.02.2020 01:14 -0,3 C 94 % 1027,8 hPa 0,0 l/m 11,3 km/h (2 Bft) W-SW 247 0 min 0,000 mm 0,0 UV-I 0 W/m -1,1 C -4,0 C 16,1 km/h (3 Bft) 100,00 %
20.02.2020 01:13 -0,2 C 94 % 1027,4 hPa 0,0 l/m 12,9 km/h (3 Bft) W-SW 247 0 min 0,000 mm 0,0 UV-I 0 W/m -1,0 C -4,2 C 19,3 km/h (3 Bft) 100,00 %
20.02.2020 01:12 -0,3 C 94 % 1027,5 hPa 0,0 l/m 9,7 km/h (2 Bft) W-SW 247 0 min 0,000 mm 0,0 UV-I 0 W/m -1,1 C -3,6 C 16,1 km/h (3 Bft) 95,65 %
20.02.2020 01:11 -0,2 C 94 % 1027,5 hPa 0,0 l/m 11,3 km/h (2 Bft) W-SW 247 0 min 0,000 mm 0,0 UV-I 0 W/m -1,0 C -3,9 C 14,5 km/h (3 Bft) 95,65 %
20.02.2020 01:10 -0,2 C 94 % 1027,6 hPa 0,0 l/m 9,7 km/h (2 Bft) W 270 0 min 0,000 mm 0,0 UV-I 0 W/m -1,0 C -3,5 C 12,9 km/h (3 Bft) 100,00 %
20.02.2020 01:09 -0,2 C 94 % 1027,6 hPa 0,0 l/m 16,1 km/h (3 Bft) W 270 0 min 0,000 mm 0,0 UV-I 0 W/m -1,0 C -4,9 C 20,9 km/h (4 Bft) 100,00 %
20.02.2020 01:08 -0,2 C 94 % 1027,6 hPa 0,0 l/m 12,9 km/h (3 Bft) W 270 0 min 0,000 mm 0,0 UV-I 0 W/m -1,0 C -4,2 C 19,3 km/h (3 Bft) 100,00 %
20.02.2020 01:07 -0,2 C 94 % 1027,5 hPa 0,0 l/m 14,5 km/h (3 Bft) W 270 0 min 0,000 mm 0,0 UV-I 0 W/m -1,0 C -4,6 C 19,3 km/h (3 Bft) 100,00 %
20.02.2020 01:06 -0,2 C 94 % 1027,5 hPa 0,0 l/m 12,9 km/h (3 Bft) W 270 0 min 0,000 mm 0,0 UV-I 0 W/m -1,0 C -4,2 C 17,7 km/h (3 Bft) 100,00 %
20.02.2020 01:05 -0,2 C 94 % 1027,6 hPa 0,0 l/m 14,5 km/h (3 Bft) W-SW 247 0 min 0,000 mm 0,0 UV-I 0 W/m -1,0 C -4,6 C 19,3 km/h (3 Bft) 95,65 %
20.02.2020 01:04 -0,2 C 94 % 1027,6 hPa 0,0 l/m 6,4 km/h (2 Bft) W-SW 247 0 min 0,000 mm 0,0 UV-I 0 W/m -1,0 C -2,4 C 11,3 km/h (2 Bft) 100,00 %
20.02.2020 01:03 -0,2 C 94 % 1027,6 hPa 0,0 l/m 11,3 km/h (2 Bft) W-SW 247 0 min 0,000 mm 0,0 UV-I 0 W/m -1,0 C -3,9 C 16,1 km/h (3 Bft) 95,65 %
20.02.2020 01:02 -0,2 C 94 % 1027,5 hPa 0,0 l/m 11,3 km/h (2 Bft) W 270 0 min 0,000 mm 0,0 UV-I 0 W/m -1,0 C -3,9 C 16,1 km/h (3 Bft) 100,00 %
20.02.2020 01:01 -0,2 C 95 % 1027,6 hPa 0,0 l/m 11,3 km/h (2 Bft) W 270 0 min 0,000 mm 0,0 UV-I 0 W/m -0,9 C -3,9 C 16,1 km/h (3 Bft) 100,00 %
20.02.2020 01:00 -0,2 C 95 % 1027,6 hPa 0,0 l/m 11,3 km/h (2 Bft) W 270 0 min 0,000 mm 0,0 UV-I 0 W/m -0,9 C -3,9 C 19,3 km/h (3 Bft) 100,00 %
20.02.2020 00:59 -0,2 C 95 % 1027,6 hPa 0,0 l/m 12,9 km/h (3 Bft) W 270 0 min 0,000 mm 0,0 UV-I 0 W/m -0,9 C -4,2 C 16,1 km/h (3 Bft) 95,65 %
20.02.2020 00:58 -0,2 C 95 % 1027,5 hPa 0,0 l/m 14,5 km/h (3 Bft) W-SW 247 0 min 0,000 mm 0,0 UV-I 0 W/m -0,9 C -4,6 C 19,3 km/h (3 Bft) 95,65 %
20.02.2020 00:57 -0,2 C 95 % 1027,6 hPa 0,0 l/m 12,9 km/h (3 Bft) W-SW 247 0 min 0,000 mm 0,0 UV-I 0 W/m -0,9 C -4,2 C 19,3 km/h (3 Bft) 100,00 %
20.02.2020 00:56 -0,2 C 95 % 1027,6 hPa 0,0 l/m 11,3 km/h (2 Bft) W 270 0 min 0,000 mm 0,0 UV-I 0 W/m -0,9 C -3,9 C 16,1 km/h (3 Bft) 95,65 %
20.02.2020 00:55 -0,2 C 95 % 1027,6 hPa 0,0 l/m 8,0 km/h (2 Bft) W 270 0 min 0,000 mm 0,0 UV-I 0 W/m -0,9 C -3,0 C 12,9 km/h (3 Bft) 100,00 %
20.02.2020 00:54 -0,2 C 95 % 1027,6 hPa 0,0 l/m 6,4 km/h (2 Bft) NW 315 0 min 0,000 mm 0,0 UV-I 0 W/m -0,9 C -2,4 C 12,9 km/h (3 Bft) 100,00 %
20.02.2020 00:53 -0,2 C 95 % 1027,6 hPa 0,0 l/m 9,7 km/h (2 Bft) W-SW 247 0 min 0,000 mm 0,0 UV-I 0 W/m -0,9 C -3,5 C 16,1 km/h (3 Bft) 100,00 %
20.02.2020 00:52 -0,2 C 95 % 1027,6 hPa 0,0 l/m 12,9 km/h (3 Bft) W-SW 247 0 min 0,000 mm 0,0 UV-I 0 W/m -0,9 C -4,2 C 17,7 km/h (3 Bft) 95,65 %
20.02.2020 00:51 -0,3 C 95 % 1027,6 hPa 0,0 l/m 12,9 km/h (3 Bft) W-SW 247 0 min 0,000 mm 0,0 UV-I 0 W/m -1,0 C -4,4 C 17,7 km/h (3 Bft) 95,65 %
20.02.2020 00:50 -0,2 C 95 % 1027,6 hPa 0,0 l/m 6,4 km/h (2 Bft) W 270 0 min 0,000 mm 0,0 UV-I 0 W/m -0,9 C -2,4 C 14,5 km/h (3 Bft) 100,00 %
20.02.2020 00:49 -0,2 C 95 % 1027,6 hPa 0,0 l/m 6,4 km/h (2 Bft) W 270 0 min 0,000 mm 0,0 UV-I 0 W/m -0,9 C -2,4 C 12,9 km/h (3 Bft) 95,65 %
20.02.2020 00:48 -0,3 C 95 % 1027,6 hPa 0,0 l/m 9,7 km/h (2 Bft) W 270 0 min 0,000 mm 0,0 UV-I 0 W/m -1,0 C -3,6 C 14,5 km/h (3 Bft) 100,00 %
20.02.2020 00:47 -0,2 C 95 % 1027,6 hPa 0,0 l/m 9,7 km/h (2 Bft) W-SW 247 0 min 0,000 mm 0,0 UV-I 0 W/m -0,9 C -3,5 C 17,7 km/h (3 Bft) 95,65 %
20.02.2020 00:46 -0,3 C 95 % 1027,6 hPa 0,0 l/m 11,3 km/h (2 Bft) W 270 0 min 0,000 mm 0,0 UV-I 0 W/m -1,0 C -4,0 C 14,5 km/h (3 Bft) 100,00 %
20.02.2020 00:45 -0,3 C 95 % 1027,6 hPa 0,0 l/m 11,3 km/h (2 Bft) W 270 0 min 0,000 mm 0,0 UV-I 0 W/m -1,0 C -4,0 C 16,1 km/h (3 Bft) 100,00 %
20.02.2020 00:44 -0,3 C 95 % 1027,5 hPa 0,0 l/m 9,7 km/h (2 Bft) W 270 0 min 0,000 mm 0,0 UV-I 0 W/m -1,0 C -3,6 C 14,5 km/h (3 Bft) 95,65 %
20.02.2020 00:43 -0,3 C 95 % 1027,5 hPa 0,0 l/m 6,4 km/h (2 Bft) W 270 0 min 0,000 mm 0,0 UV-I 0 W/m -1,0 C -2,5 C 14,5 km/h (3 Bft) 100,00 %
20.02.2020 00:42 -0,3 C 95 % 1027,4 hPa 0,0 l/m 11,3 km/h (2 Bft) W 270 0 min 0,000 mm 0,0 UV-I 0 W/m -1,0 C -4,0 C 14,5 km/h (3 Bft) 100,00 %
20.02.2020 00:41 -0,3 C 95 % 1027,4 hPa 0,0 l/m 11,3 km/h (2 Bft) W 270 0 min 0,000 mm 0,0 UV-I 0 W/m -1,0 C -4,0 C 16,1 km/h (3 Bft) 100,00 %
20.02.2020 00:40 -0,3 C 95 % 1027,4 hPa 0,0 l/m 8,0 km/h (2 Bft) W-SW 247 0 min 0,000 mm 0,0 UV-I 0 W/m -1,0 C -3,1 C 16,1 km/h (3 Bft) 100,00 %
20.02.2020 00:39 -0,3 C 95 % 1027,4 hPa 0,0 l/m 12,9 km/h (3 Bft) W-SW 247 0 min 0,000 mm 0,0 UV-I 0 W/m -1,0 C -4,4 C 16,1 km/h (3 Bft) 100,00 %
20.02.2020 00:38 -0,3 C 95 % 1027,5 hPa 0,0 l/m 11,3 km/h (2 Bft) W 270 0 min 0,000 mm 0,0 UV-I 0 W/m -1,0 C -4,0 C 14,5 km/h (3 Bft) 100,00 %
20.02.2020 00:37 -0,3 C 95 % 1027,4 hPa 0,0 l/m 11,3 km/h (2 Bft) W-SW 247 0 min 0,000 mm 0,0 UV-I 0 W/m -1,0 C -4,0 C 17,7 km/h (3 Bft) 91,30 %
20.02.2020 00:36 -0,3 C 95 % 1027,4 hPa 0,0 l/m 11,3 km/h (2 Bft) W 270 0 min 0,000 mm 0,0 UV-I 0 W/m -1,0 C -4,0 C 14,5 km/h (3 Bft) 100,00 %
20.02.2020 00:35 -0,3 C 95 % 1027,4 hPa 0,0 l/m 11,3 km/h (2 Bft) W-SW 247 0 min 0,000 mm 0,0 UV-I 0 W/m -1,0 C -4,0 C 14,5 km/h (3 Bft) 100,00 %
20.02.2020 00:34 -0,3 C 95 % 1027,5 hPa 0,0 l/m 9,7 km/h (2 Bft) W-SW 247 0 min 0,000 mm 0,0 UV-I 0 W/m -1,0 C -3,6 C 16,1 km/h (3 Bft) 95,65 %
20.02.2020 00:33 -0,3 C 95 % 1027,4 hPa 0,0 l/m 6,4 km/h (2 Bft) W 270 0 min 0,000 mm 0,0 UV-I 0 W/m -1,0 C -2,5 C 11,3 km/h (2 Bft) 100,00 %
20.02.2020 00:32 -0,3 C 95 % 1027,4 hPa 0,0 l/m 9,7 km/h (2 Bft) W 270 0 min 0,000 mm 0,0 UV-I 0 W/m -1,0 C -3,6 C 14,5 km/h (3 Bft) 95,65 %
20.02.2020 00:31 -0,3 C 95 % 1027,4 hPa 0,0 l/m 9,7 km/h (2 Bft) W 270 0 min 0,000 mm 0,0 UV-I 0 W/m -1,0 C -3,6 C 16,1 km/h (3 Bft) 95,65 %
20.02.2020 00:30 -0,3 C 95 % 1027,4 hPa 0,0 l/m 4,8 km/h (1 Bft) S-SW 202 0 min 0,000 mm 0,0 UV-I 0 W/m -1,0 C -1,8 C 8,0 km/h (2 Bft) 95,65 %
20.02.2020 00:29 -0,3 C 95 % 1027,4 hPa 0,0 l/m 11,3 km/h (2 Bft) W 270 0 min 0,000 mm 0,0 UV-I 0 W/m -1,0 C -4,0 C 14,5 km/h (3 Bft) 95,65 %
20.02.2020 00:28 -0,3 C 95 % 1027,3 hPa 0,0 l/m 9,7 km/h (2 Bft) W 270 0 min 0,000 mm 0,0 UV-I 0 W/m -1,0 C -3,6 C 16,1 km/h (3 Bft) 100,00 %
20.02.2020 00:27 -0,3 C 95 % 1027,4 hPa 0,0 l/m 11,3 km/h (2 Bft) W 270 0 min 0,000 mm 0,0 UV-I 0 W/m -1,0 C -4,0 C 17,7 km/h (3 Bft) 100,00 %
20.02.2020 00:26 -0,3 C 95 % 1027,4 hPa 0,0 l/m 12,9 km/h (3 Bft) W-SW 247 0 min 0,000 mm 0,0 UV-I 0 W/m -1,0 C -4,4 C 16,1 km/h (3 Bft) 95,65 %
20.02.2020 00:25 -0,3 C 95 % 1027,4 hPa 0,0 l/m 6,4 km/h (2 Bft) W 270 0 min 0,000 mm 0,0 UV-I 0 W/m -1,0 C -2,5 C 11,3 km/h (2 Bft) 100,00 %
20.02.2020 00:24 -0,3 C 95 % 1027,4 hPa 0,0 l/m 8,0 km/h (2 Bft) W 270 0 min 0,000 mm 0,0 UV-I 0 W/m -1,0 C -3,1 C 16,1 km/h (3 Bft) 100,00 %
20.02.2020 00:23 -0,2 C 95 % 1027,4 hPa 0,0 l/m 14,5 km/h (3 Bft) W 270 0 min 0,000 mm 0,0 UV-I 0 W/m -0,9 C -4,6 C 17,7 km/h (3 Bft) 91,30 %
20.02.2020 00:22 -0,2 C 95 % 1027,3 hPa 0,0 l/m 11,3 km/h (2 Bft) W 270 0 min 0,000 mm 0,0 UV-I 0 W/m -0,9 C -3,9 C 17,7 km/h (3 Bft) 95,65 %
20.02.2020 00:21 -0,3 C 95 % 1027,3 hPa 0,0 l/m 11,3 km/h (2 Bft) W 270 0 min 0,000 mm 0,0 UV-I 0 W/m -1,0 C -4,0 C 17,7 km/h (3 Bft) 95,65 %
20.02.2020 00:20 -0,2 C 95 % 1027,3 hPa 0,0 l/m 11,3 km/h (2 Bft) W 270 0 min 0,000 mm 0,0 UV-I 0 W/m -0,9 C -3,9 C 17,7 km/h (3 Bft) 100,00 %
20.02.2020 00:19 -0,2 C 95 % 1027,3 hPa 0,0 l/m 12,9 km/h (3 Bft) W 270 0 min 0,000 mm 0,0 UV-I 0 W/m -0,9 C -4,2 C 17,7 km/h (3 Bft) 95,65 %
20.02.2020 00:18 -0,3 C 95 % 1027,2 hPa 0,0 l/m 6,4 km/h (2 Bft) NW 315 0 min 0,000 mm 0,0 UV-I 0 W/m -1,0 C -2,5 C 12,9 km/h (3 Bft) 95,65 %
20.02.2020 00:17 -0,3 C 95 % 1027,2 hPa 0,0 l/m 9,7 km/h (2 Bft) SW 225 0 min 0,000 mm 0,0 UV-I 0 W/m -1,0 C -3,6 C 16,1 km/h (3 Bft) 100,00 %
20.02.2020 00:16 -0,2 C 95 % 1027,3 hPa 0,0 l/m 9,7 km/h (2 Bft) W 270 0 min 0,000 mm 0,0 UV-I 0 W/m -0,9 C -3,5 C 14,5 km/h (3 Bft) 86,96 %
20.02.2020 00:15 -0,2 C 95 % 1027,3 hPa 0,0 l/m 14,5 km/h (3 Bft) W 270 0 min 0,000 mm 0,0 UV-I 0 W/m -0,9 C -4,6 C 20,9 km/h (4 Bft) 100,00 %
20.02.2020 00:14 -0,2 C 95 % 1027,3 hPa 0,0 l/m 8,0 km/h (2 Bft) W 270 0 min 0,000 mm 0,0 UV-I 0 W/m -0,9 C -3,0 C 12,9 km/h (3 Bft) 95,65 %
20.02.2020 00:13 -0,2 C 95 % 1027,3 hPa 0,0 l/m 12,9 km/h (3 Bft) W-SW 247 0 min 0,000 mm 0,0 UV-I 0 W/m -0,9 C -4,2 C 17,7 km/h (3 Bft) 100,00 %
20.02.2020 00:12 -0,2 C 95 % 1027,2 hPa 0,0 l/m 11,3 km/h (2 Bft) W 270 0 min 0,000 mm 0,0 UV-I 0 W/m -0,9 C -3,9 C 19,3 km/h (3 Bft) 95,65 %
20.02.2020 00:11 -0,2 C 95 % 1027,2 hPa 0,0 l/m 9,7 km/h (2 Bft) W 270 0 min 0,000 mm 0,0 UV-I 0 W/m -0,9 C -3,5 C 16,1 km/h (3 Bft) 100,00 %
20.02.2020 00:10 -0,2 C 95 % 1027,3 hPa 0,0 l/m 9,7 km/h (2 Bft) W-SW 247 0 min 0,000 mm 0,0 UV-I 0 W/m -0,9 C -3,5 C 16,1 km/h (3 Bft) 95,65 %
20.02.2020 00:09 -0,2 C 95 % 1027,2 hPa 0,0 l/m 11,3 km/h (2 Bft) W-SW 247 0 min 0,000 mm 0,0 UV-I 0 W/m -0,9 C -3,9 C 17,7 km/h (3 Bft) 82,61 %
20.02.2020 00:08 -0,2 C 95 % 1027,3 hPa 0,0 l/m 14,5 km/h (3 Bft) W-SW 247 0 min 0,000 mm 0,0 UV-I 0 W/m -0,9 C -4,6 C 19,3 km/h (3 Bft) 100,00 %
20.02.2020 00:07 -0,2 C 95 % 1027,3 hPa 0,0 l/m 17,7 km/h (3 Bft) W 270 0 min 0,000 mm 0,0 UV-I 0 W/m -0,9 C -5,1 C 24,1 km/h (4 Bft) 95,65 %
20.02.2020 00:06 -0,2 C 95 % 1027,2 hPa 0,0 l/m 14,5 km/h (3 Bft) W 270 0 min 0,000 mm 0,0 UV-I 0 W/m -0,9 C -4,6 C 19,3 km/h (3 Bft) 100,00 %
20.02.2020 00:05 -0,2 C 95 % 1027,3 hPa 0,0 l/m 12,9 km/h (3 Bft) W-SW 247 0 min 0,000 mm 0,0 UV-I 0 W/m -0,9 C -4,2 C 17,7 km/h (3 Bft) 95,65 %
20.02.2020 00:04 -0,3 C 95 % 1027,3 hPa 0,0 l/m 12,9 km/h (3 Bft) W 270 0 min 0,000 mm 0,0 UV-I 0 W/m -1,0 C -4,4 C 16,1 km/h (3 Bft) 95,65 %
20.02.2020 00:03 -0,3 C 95 % 1027,3 hPa 0,0 l/m 9,7 km/h (2 Bft) W 270 0 min 0,000 mm 0,0 UV-I 0 W/m -1,0 C -3,6 C 14,5 km/h (3 Bft) 95,65 %
20.02.2020 00:02 -0,3 C 95 % 1027,3 hPa 0,0 l/m 9,7 km/h (2 Bft) W 270 0 min 0,000 mm 0,0 UV-I 0 W/m -1,0 C -3,6 C 16,1 km/h (3 Bft) 95,65 %
20.02.2020 00:01 -0,3 C 95 % 1027,3 hPa 0,0 l/m 11,3 km/h (2 Bft) W 270 0 min 0,000 mm 0,0 UV-I 0 W/m -1,0 C -4,0 C 19,3 km/h (3 Bft) 91,30 %
20.02.2020 00:00 -0,3 C 95 % 1027,2 hPa 0,0 l/m 8,0 km/h (2 Bft) W-SW 247 0 min 0,000 mm 0,0 UV-I 0 W/m -1,0 C -3,1 C 12,9 km/h (3 Bft) 95,65 %
_ Min-Zeit 04:56 03:02 00:00 - 03:22 - - - - - - 04:57 05:16 04:21 00:09
Minimum _ -1,3 C 91 % 1027,2 hPa - 1,6 km/h (1 Bft) - - - - - - -2,1 C -6,1 C 1,6 km/h (1 Bft) 82,61 %
_ Max-Zeit 01:53 00:00 01:14 00:00 00:07 - - 00:00 00:00 00:00 00:00 00:05 02:10 01:21 00:06
Maximum _ -0,1 C 95 % 1027,8 hPa 0,0 l/m 17,7 km/h
W (3 Bft)
- - 0 min 0,000 mm 0,0 UV-I 0 W/m -0,9 C -0,1 C 27,4 km/h
W (4 Bft)
100,00 %
Durchschnitt _ -0,5 C 93 % 1027,6 hPa #0,0 l/m 8,6 km/h (2 Bft) W - #0 min. #0,000 mm 0,0 UV-I 0 W/m -1,4 C -3,2 C 13,3 km/h (3 Bft) 97,57 %